Regional Weather Roundup
Issued by NWS Cleveland, OH

Home | Current Version | Previous Version | Graphics & Text | Print | Product List | Glossary On
Versions: 1 2 3 4 5 6 7 8 9 10 11 12 13 14 15 16 17 18 19 20 21 22 23 24 25 26 27 28 29 30 31 32 33 34 35 36 37 38 39 40 41 42 43 44 45 46 47 48 49 50
000
ASUS41 KCLE 060400
RWRCLE
OHIO REGIONAL WEATHER ROUNDUP
NATIONAL WEATHER SERVICE WILMINGTON, OH
1100 PM EST MON DEC 05 2016

NOTE: "FAIR" INDICATES FEW OR NO CLOUDS BELOW 12,000 FEET WITH NO
SIGNIFICANT WEATHER AND/OR OBSTRUCTIONS TO VISIBILITY.

OHZ001>008-015>018-024>027-034-035-043-044-060500-
   NORTHWEST OHIO

CITY           SKY/WX    TMP DP  RH WIND       PRES   REMARKS
DEFIANCE       FAIR      30  25  81 E3        30.02F
FINDLAY        FAIR      31  25  78 E6        30.00F WCI  25
TOLEDO EXPRESS FAIR      25  25 100 CALM      30.03F FOG
TOLEDO EXEC    FAIR      29  27  92 E3        30.05S
LIMA           FAIR      30  28  92 SE9       29.99F WCI  22
$$

OHZ009>014-019>023-028>033-038-089-060500-
   NORTHEAST OHIO

CITY           SKY/WX    TMP DP  RH WIND       PRES   REMARKS
CLE-HOPKINS    FAIR      33  26  75 E8        30.08F WCI  26
CLE-LAKEFRONT  FAIR      35  28  75 E6        30.07F
CUY CO. ARPT   CLEAR     27  27 100 CALM      30.08F
LORAIN-ELYRIA  FAIR      28  24  85 E6        30.06F WCI  22
ASHTABULA      FAIR      27  26  96 E5        30.09F WCI  22
AKRON-CANTON   FAIR      31  24  75 E9        30.04F WCI  23
WOOSTER        NOT AVBL
MANSFIELD      FAIR      31  27  85 SE10      30.01F WCI  22
YOUNGSTOWN     FAIR      26  24  92 E5        30.08S WCI  20
$$

OHZ042-051>053-060>062-070>072-077>081-060500-
  SOUTHWEST OHIO

CITY           SKY/WX    TMP DP  RH WIND       PRES   REMARKS
CINC-COVINGTON CLOUDY    39  33  79 E9        29.93F
CINC-LUNKEN    FAIR      39  35  86 NE6       29.96F
HAMILTON       FAIR      37  32  82 E7        29.97F
DAYTON         NOT AVBL
WRIGHT-PAT AFB FAIR      33  31  89 E7        29.98S WCI  27
DAYTON GENERAL FAIR      35  29  78 E9        29.95F WCI  28
WILMINGTON     FAIR      34  31  88 E10       29.95F WCI  26
$$

OHZ036-037-039>041-045>050-054>059-063>069-073>076-082>088-060500-
  CENTRAL AND SOUTHEAST OHIO

CITY           SKY/WX    TMP DP  RH WIND       PRES   REMARKS
COLUMBUS       FAIR      33  29  85 E7        30.01F WCI  27
OSU AIRPORT    FAIR      29  26  89 E8        30.01F WCI  21
BOLTON FIELD   NOT AVBL
RICKENBACK AFB NOT AVBL
NEWARK         FAIR      31  27  85 NE6       30.02F WCI  25
MARION         FAIR      28  25  88 SE7       30.02F WCI  21
LANCASTER      FAIR      32  28  85 E6        30.01F WCI  26
ZANESVILLE     FAIR      33  27  78 NE6       30.03F WCI  28
NEW PHILLY     FAIR      27  26  96 CALM      30.06F
$$




USA.gov is the U.S. government's official web portal to all federal, state and local government web resources and services.